Location: Washington
(38.8950°N, 77.0367°W)
Time: 14:30:41
(UTC-04:00)

N. Korean satellite - Visible Passes

Search period start: 20 April 2014 00:00
Search period end: 30 April 2014 00:00
Orbit: 489 x 561 km, 97.3° (Epoch: 19 April)

Date Brightness Start Highest point End Pass type
(mag) Time Alt. Az. Time Alt. Az. Time Alt. Az.
20 Apr 7.6 20:22:46 10° SE 20:26:19 34° ENE 20:29:56 10° N visible
20 Apr 9.6 21:58:14 10° SW 22:00:40 16° W 22:03:08 10° NW visible
21 Apr 8.0 20:11:15 10° SE 20:14:29 25° ENE 20:17:47 10° NNE visible
21 Apr 9.1 21:45:37 10° SW 21:48:41 22° W 21:51:47 10° NW visible
22 Apr 8.6 21:33:13 10° SSW 21:36:41 30° W 21:40:14 10° NW visible
23 Apr 8.0 21:20:59 10° S 21:24:43 42° W 21:28:31 10° NNW visible
24 Apr 7.3 21:08:51 10° S 21:12:45 60° W 21:16:43 10° NNW visible
25 Apr 6.8 20:56:50 10° SSE 21:00:47 86° WSW 21:04:48 10° NNW visible
26 Apr 6.8 20:44:54 10° SSE 20:48:49 67° ENE 20:52:49 10° N visible
27 Apr 7.2 20:33:04 10° SSE 20:36:52 47° ENE 20:40:44 10° N visible
27 Apr 9.8 22:09:53 10° WSW 22:11:22 12° W 22:12:52 10° WNW visible
28 Apr 7.6 20:21:20 10° SE 20:24:56 34° ENE 20:28:34 10° N visible
28 Apr 9.5 21:56:42 10° SW 21:59:15 16° W 22:01:50 10° NW visible
29 Apr 9.1 21:44:00 10° SSW 21:47:09 22° W 21:50:21 10° NW visible
